[[{"header":{"parameterUnit":"m.s-1","parameterCategory":1,"la1":30.2991,"la2":30.254,"lo1":-89.0895,"lo2":-89.0444,"dy":0.0017,"dx":0.0017,"nx":28,"ny":28,"refTime":"2023-08-07T03:00:00:Z","depth":0,"parameterNumber":2,"parameterNumberName":"U-component_of_WINDS"},"data":[0,0,0,0,0,0,0,0,0,0,0,0,0,0,0,0,0,0,0,0,0,0,0,0,0,0,0,0,0,0,0,0,0,0,0,0,0,0,0,0,0,0,0,0,0,0,0,0,0,0,0,0,0,0,0,0,0,0,4.1478,4.1479,0,4.1559,4.156,4.1561,4.1543,4.1541,4.154,4.1538,4.1622,4.1626,4.1629,0,0,0,0,0,0,0,0,0,0,0,0,0,4.1309,4.1312,4.1478,4.1479,4.148,4.1559,4.156,4.1561,4.1543,4.1541,4.1539,4.1538,4.1621,4.1625,4.163,0,0,0,0,0,0,0,0,0,0,0,0,0,4.1385,4.1313,4.1478,4.148,4.1481,4.1558,4.156,4.1561,4.1543,4.1541,4.1539,4.1537,4.162,4.1625,4.163,4.171,0,0,4.1647,4.1649,0,0,0,0,0,0,0,0,4.1381,4.1391,4.1479,4.148,4.1482,4.1538,4.1531,4.1611,4.1544,4.152,4.1538,4.1536,4.1596,4.1603,4.1624,4.1714,4.1717,4.1647,4.1651,4.1653,4.1655,0,0,0,0,0,0,0,4.1376,4.1388,4.151,4.148,4.1482,4.1478,4.1486,4.1546,4.157,4.1522,4.1521,4.1531,4.1596,4.1618,4.1625,4.1718,4.1647,4.1652,4.1656,4.1658,4.1878,4.188,0,0,0,0,0,0,4.1369,4.1384,4.1507,4.1512,4.1425,4.1483,4.1492,4.1522,4.1569,4.1574,4.1532,4.1529,4.161,4.1619,4.1628,4.1724,4.1653,4.1658,4.1661,4.1875,4.1878,4.1881,0,0,0,0,0,0,4.1365,4.138,4.1504,4.1448,4.1463,4.1488,4.1522,4.1525,4.1547,4.1577,4.1581,4.155,4.1609,4.1621,4.1689,4.1727,4.1661,4.1666,4.1872,4.1876,4.188,4.1917,0,0,0,0,0,0,4.1361,4.1379,4.1409,4.1448,4.1466,4.1564,4.1525,4.1528,4.1556,4.1553,4.1595,4.16,4.1608,4.1681,4.1695,4.1733,4.167,4.1869,4.1874,4.1878,4.1912,4.1921,4.1929,0,0,0,0,0,4.1355,4.1417,4.1411,4.1426,4.1504,4.1566,4.1576,4.1584,4.156,4.159,4.161,4.1598,4.1721,4.1689,4.1704,4.1744,4.1866,4.1872,4.1878,4.1908,4.1919,4.1929,0,0,0,0,0,0,4.1381,4.1422,4.1416,4.1492,4.1526,4.1563,4.1601,4.1595,4.1636,4.1632,4.164,4.1649,4.1719,4.1739,4.1702,4.1823,4.179,4.1799,4.1808,4.1819,4.1827,4.1821,4.1674,0,0,0,0,0,4.1396,4.1442,4.1475,4.1539,4.1556,4.1576,4.1603,4.1606,4.1641,4.1655,4.168,4.1715,4.1761,4.1791,4.1835,4.1915,4.1924,4.195,4.1959,4.1966,4.1973,4.2017,4.2029,4.19,4.19,4.19,0,0,4.1427,4.1455,4.1483,4.1545,4.1572,4.162,4.1588,4.164,4.1676,4.1663,4.173,4.1749,4.1788,4.1863,4.1897,4.1881,4.2011,4.1973,4.1978,4.1982,4.2024,4.2036,4.2047,4.1904,4.1903,4.1902,0,0,4.1508,4.1533,4.159,4.1617,4.1657,4.1669,4.1683,4.1721,4.1733,4.18,4.1792,4.1834,4.1914,4.1942,4.1967,4.2059,4.205,4.2073,4.2117,4.216,4.217,4.2179,4.2211,4.2223,4.2081,4.2081,4.2081,0,4.1541,4.1612,4.1619,4.1672,4.17,4.1691,4.1748,4.1774,4.1827,4.1846,4.1827,4.1927,4.1953,4.2034,4.2056,4.2077,4.2093,4.2068,4.2168,4.2177,4.2185,4.2216,4.2229,4.2083,4.2083,4.2083,4.2083,0,4.1651,4.1701,4.1742,4.1793,4.1825,4.188,4.1895,4.1927,4.1928,4.1942,4.201,4.2041,4.2091,4.2111,4.2112,4.2193,4.2181,4.2165,4.2132,4.22,4.2229,4.2241,4.2087,4.2086,4.2085,4.2085,0,0,4.175,4.1805,4.1819,4.1842,4.1886,4.1925,4.1979,4.2028,4.2055,4.2092,4.2138,4.2206,4.2191,4.2219,4.2224,4.2261,4.2331,4.224,4.2241,4.2256,4.2422,4.2433,4.2447,4.2326,4.2329,4.233,4.2418,0,4.1835,4.193,4.1939,4.2025,4.2071,4.2063,4.2111,4.2143,4.2158,4.22,4.2217,4.2265,4.2242,4.2259,4.2295,4.2315,4.2365,4.2309,4.2369,4.2371,4.2359,4.2462,4.2474,4.2556,4.243,4.2432,4.2433,0,4.1946,4.1986,4.2076,4.2114,4.2133,4.2176,4.2221,4.2261,4.2298,4.2306,4.2338,4.2337,4.2394,4.2359,4.2436,4.2398,4.2423,4.2437,4.244,4.2446,4.2406,4.247,4.2582,4.2594,4.2451,4.245,4.2449,0,4.2008,4.2085,4.2149,4.2169,4.2214,4.2244,4.2265,4.2299,4.2328,4.2368,4.2386,4.2433,4.2458,4.2494,4.2506,4.2479,4.2583,4.2549,4.2592,4.2591,4.2613,4.2612,4.273,4.2631,4.2631,4.263,4.263,0,4.2101,4.2157,4.2178,4.2217,4.2279,4.2288,4.235,4.2369,4.2399,4.2442,4.2439,4.2479,4.2493,4.2536,4.2546,4.2608,4.262,4.2629,4.263,4.2629,4.2627,4.2645,4.2639,4.2634,4.2633,4.2632,4.2632,0,4.2182,4.2198,4.2267,4.2304,4.2315,4.2359,4.2391,4.2429,4.2444,4.2499,4.2512,4.2536,4.2586,4.2602,4.2662,4.2669,4.2742,4.2739,4.273,4.273,4.2771,4.2767,4.2905,4.2923,4.2812,4.2813,4.2814,0,4.224,4.2282,4.2324,4.2353,4.2374,4.242,4.2449,4.246,4.2491,4.2536,4.2569,4.2618,4.2659,4.274,4.2762,4.2809,4.2807,4.2852,4.2814,4.281,4.2807,4.2804,4.2808,4.2859,4.286,4.2861,4.2862,0,4.2341,4.2347,4.2389,4.2434,4.247,4.2506,4.2541,4.2565,4.258,4.2615,4.2667,4.2698,4.276,4.2809,4.2857,4.2878,4.2873,4.2874,4.2886,4.2884,4.2876,4.2881,4.2749,4.287,4.2869,4.2869,4.2868,4.2868,4.2411,4.2449,4.2484,4.2531,4.2559,4.2592,4.2629,4.2649,4.2692,4.2743,4.2747,4.2802,4.2838,4.2901,4.2924,4.2968,4.2955,4.2973,4.2977,4.2981,4.2984,4.287,4.2977,4.2977,4.2976,4.2976,4.2976,0,4.2512,4.2534,4.2578,4.2627,4.2664,4.2656,4.2694,4.2726,4.2775,4.2808,4.2848,4.2907,4.2955,4.2981,4.3029,4.3059,4.3058,4.3071,4.3069,4.3074,4.2994,4.2978,4.3071,4.3071,4.3071,4.3071,4.3071,4.3071,4.2568,4.2631,4.2641,4.2718,4.274,4.2794,4.2816,4.2847,4.2873,4.2939,4.2979,4.2996,4.3027,4.3077,4.3121,4.3127,4.3145,4.316,4.3165,4.3089,4.3079,4.307,4.3055,4.3164,4.3164,4.3241,4.3242,4.3242]},{"header":{"parameterUnit":"m.s-1","parameterCategory":1,"la1":30.2991,"la2":30.254,"lo1":-89.0895,"lo2":-89.0444,"dy":0.0017,"dx":0.0017,"nx":28,"ny":28,"refTime":"2023-08-07T03:00:00:Z","depth":0,"parameterNumber":3,"parameterNumberName":"V-component_of_WINDS"},"data":[0,0,0,0,0,0,0,0,0,0,0,0,0,0,0,0,0,0,0,0,0,0,0,0,0,0,0,0,0,0,0,0,0,0,0,0,0,0,0,0,0,0,0,0,0,0,0,0,0,0,0,0,0,0,0,0,0,0,1.7309,1.7309,0,1.7348,1.7349,1.7349,1.7345,1.7345,1.7344,1.7343,1.7383,1.7385,1.7386,0,0,0,0,0,0,0,0,0,0,0,0,0,1.7227,1.7229,1.7309,1.7309,1.731,1.7348,1.7349,1.7349,1.7345,1.7345,1.7344,1.7343,1.7383,1.7384,1.7386,0,0,0,0,0,0,0,0,0,0,0,0,0,1.7264,1.7229,1.7308,1.7312,1.7313,1.7348,1.7349,1.735,1.7346,1.7345,1.7344,1.7343,1.7382,1.7384,1.7387,1.742,0,0,1.7394,1.7395,0,0,0,0,0,0,0,0,1.7262,1.7267,1.7311,1.7312,1.7313,1.7341,1.7335,1.7373,1.7346,1.7333,1.7343,1.7342,1.737,1.7373,1.7383,1.7422,1.7424,1.7394,1.7396,1.7397,1.7398,0,0,0,0,0,0,0,1.726,1.7266,1.7324,1.7312,1.7313,1.7311,1.7316,1.7342,1.7356,1.7334,1.7334,1.7339,1.737,1.738,1.7383,1.7425,1.7394,1.7396,1.7398,1.7399,1.7493,1.7494,0,0,0,0,0,0,1.7256,1.7264,1.7323,1.7325,1.7285,1.7314,1.7318,1.7333,1.7356,1.7358,1.734,1.7338,1.7377,1.7381,1.7385,1.7425,1.7397,1.7399,1.7401,1.7492,1.7493,1.7494,0,0,0,0,0,0,1.7255,1.7262,1.7321,1.7294,1.7302,1.7316,1.7332,1.7334,1.7344,1.736,1.7362,1.7348,1.7376,1.7381,1.7411,1.7426,1.74,1.7402,1.7491,1.7492,1.7494,1.7506,0,0,0,0,0,0,1.7252,1.7261,1.7275,1.7295,1.7303,1.7348,1.7333,1.7336,1.7349,1.7348,1.7368,1.737,1.7376,1.7408,1.7414,1.7429,1.7404,1.7489,1.7491,1.7493,1.7504,1.7508,1.7511,0,0,0,0,0,1.725,1.7276,1.7275,1.7282,1.732,1.7349,1.7354,1.7359,1.735,1.7363,1.7373,1.737,1.7424,1.7411,1.7418,1.7434,1.7488,1.7491,1.7493,1.7503,1.7507,1.7511,0,0,0,0,0,0,1.7257,1.7279,1.7278,1.7312,1.7329,1.7348,1.7365,1.7364,1.7383,1.7381,1.7387,1.7391,1.7422,1.7431,1.7416,1.7467,1.7455,1.7459,1.746,1.7464,1.7467,1.7464,1.7406,0,0,0,0,0,1.7263,1.7285,1.7302,1.7331,1.7339,1.7351,1.7363,1.7366,1.7383,1.739,1.7402,1.7418,1.7439,1.7452,1.7472,1.7506,1.751,1.7521,1.7524,1.7526,1.7529,1.7547,1.7552,1.7502,1.7502,1.7502,0,0,1.7275,1.729,1.7303,1.7333,1.7346,1.7367,1.7356,1.738,1.7396,1.7393,1.7422,1.7432,1.745,1.7482,1.7497,1.7491,1.7544,1.7529,1.7531,1.7533,1.755,1.7555,1.7559,1.7503,1.7503,1.7503,0,0,1.7307,1.7321,1.7346,1.7359,1.7379,1.7387,1.7393,1.7412,1.7418,1.7448,1.7446,1.7465,1.75,1.7513,1.7524,1.7562,1.7559,1.7568,1.7585,1.7602,1.7606,1.7609,1.7622,1.7626,1.7571,1.7571,1.7571,0,1.732,1.7353,1.7359,1.7383,1.7395,1.7395,1.7419,1.7432,1.7457,1.7466,1.7459,1.7503,1.7516,1.755,1.7559,1.7569,1.7575,1.7565,1.7605,1.7608,1.7612,1.7623,1.7628,1.7572,1.7572,1.7572,1.7572,0,1.7366,1.7389,1.7406,1.7431,1.7446,1.747,1.748,1.7494,1.7496,1.7503,1.7533,1.7548,1.757,1.7579,1.7581,1.7613,1.7609,1.7604,1.7591,1.7617,1.7628,1.7633,1.7573,1.7573,1.7573,1.7572,0,0,1.7404,1.7432,1.7438,1.7449,1.7471,1.7488,1.7512,1.7534,1.7546,1.7564,1.7583,1.7613,1.7608,1.7621,1.7624,1.7639,1.7667,1.7632,1.7632,1.7637,1.7703,1.7706,1.7711,1.7665,1.7666,1.7667,1.7701,0,1.7438,1.748,1.7487,1.7524,1.7545,1.7544,1.7565,1.758,1.7588,1.7606,1.7615,1.7636,1.7628,1.7636,1.7651,1.766,1.768,1.7658,1.7683,1.7683,1.7677,1.7717,1.7721,1.7752,1.7705,1.7706,1.7707,0,1.7483,1.7502,1.7541,1.756,1.7569,1.7587,1.7608,1.7626,1.7643,1.7647,1.7662,1.7663,1.7687,1.7674,1.7706,1.7691,1.7702,1.7708,1.7709,1.7711,1.7696,1.7719,1.7762,1.7766,1.7714,1.7713,1.7713,0,1.7506,1.7541,1.7569,1.7578,1.7601,1.7614,1.7624,1.764,1.7653,1.7671,1.7679,1.77,1.771,1.7726,1.7732,1.7723,1.7764,1.7752,1.7768,1.7768,1.7776,1.7775,1.782,1.7785,1.7784,1.7784,1.7784,0,1.7542,1.7566,1.7579,1.7596,1.7623,1.763,1.7655,1.7665,1.7679,1.7698,1.7699,1.7716,1.7724,1.7742,1.7747,1.7773,1.7778,1.7782,1.7783,1.7781,1.7781,1.7788,1.7785,1.7786,1.7785,1.7785,1.7785,0,1.7572,1.7581,1.7612,1.7631,1.7636,1.7655,1.7671,1.7687,1.7695,1.7718,1.7724,1.7736,1.7757,1.7766,1.7792,1.7795,1.7825,1.7824,1.7819,1.7819,1.7834,1.7832,1.7885,1.7891,1.7852,1.7852,1.7853,0,1.7594,1.7612,1.7633,1.7646,1.7656,1.7677,1.769,1.7697,1.7711,1.7731,1.7745,1.7766,1.7784,1.7818,1.7829,1.7849,1.7848,1.7865,1.7851,1.7849,1.7847,1.7846,1.7847,1.7867,1.7868,1.7868,1.7868,0,1.7632,1.7636,1.7655,1.7676,1.7692,1.7708,1.7725,1.7735,1.7745,1.776,1.7782,1.7795,1.7822,1.7843,1.7863,1.7873,1.7872,1.7873,1.7878,1.7876,1.7871,1.7873,1.7825,1.7871,1.7871,1.7871,1.7871,1.7871,1.7658,1.7674,1.7691,1.7712,1.7725,1.774,1.7756,1.7766,1.7785,1.7808,1.7811,1.7834,1.785,1.7878,1.7888,1.7906,1.7902,1.7908,1.791,1.7911,1.7912,1.7869,1.791,1.791,1.791,1.791,1.791,0,1.7695,1.7706,1.7726,1.7748,1.7765,1.7763,1.7781,1.7795,1.7816,1.7831,1.7848,1.7873,1.7894,1.7906,1.7927,1.7938,1.7938,1.7943,1.7942,1.7944,1.7915,1.7909,1.7943,1.7943,1.7943,1.7943,1.7943,1.7943,1.7716,1.7743,1.7749,1.7782,1.7793,1.7816,1.7826,1.784,1.7852,1.788,1.7897,1.7906,1.792,1.7941,1.7959,1.7962,1.7969,1.7974,1.7977,1.795,1.7946,1.7943,1.7937,1.7976,1.7976,1.8004,1.8004,1.8005]}]]